Time,TemperatureF,DewpointF,PressureIn,WindDirection,WindDirectionDegrees,WindSpeedMPH,WindSpeedGustMPH,Humidity,HourlyPrecipIn,Conditions,Clouds,dailyrainin,SoftwareType,DateUTC
2013-08-21 00:02:00,58.6,55.4,29.94,WSW,240,6.0,10.0,89,0.00,,,0.00,meteohub,2013-08-21 07:02:00,
2013-08-21 00:07:00,58.6,55.4,29.94,SW,231,7.0,8.0,89,0.00,,,0.00,meteohub,2013-08-21 07:07:00,
2013-08-21 00:12:00,58.6,55.4,29.94,SSW,208,6.0,9.0,89,0.00,,,0.00,meteohub,2013-08-21 07:12:00,
2013-08-21 00:17:00,58.6,55.4,29.94,SW,236,4.0,9.0,89,0.00,,,0.00,meteohub,2013-08-21 07:17:00,
2013-08-21 00:22:00,58.6,55.4,29.94,SW,217,5.0,9.0,89,0.00,,,0.00,meteohub,2013-08-21 07:22:00,
2013-08-21 00:27:00,58.6,55.4,29.94,SSW,210,5.0,9.0,89,0.00,,,0.00,meteohub,2013-08-21 07:27:00,
2013-08-21 00:32:00,58.6,55.4,29.94,SW,235,5.0,9.0,89,0.00,,,0.00,meteohub,2013-08-21 07:32:00,
2013-08-21 00:37:00,58.6,55.4,29.94,WSW,250,3.0,9.0,89,0.00,,,0.00,meteohub,2013-08-21 07:37:00,
2013-08-21 00:42:00,58.6,55.4,29.94,SSW,205,6.0,10.0,89,0.00,,,0.00,meteohub,2013-08-21 07:42:00,
2013-08-21 00:47:00,58.5,55.2,29.94,WSW,237,7.0,11.0,89,0.00,,,0.00,meteohub,2013-08-21 07:47:00,
2013-08-21 00:52:00,58.5,55.2,29.94,WSW,241,7.0,11.0,89,0.00,,,0.00,meteohub,2013-08-21 07:52:00,
2013-08-21 00:57:00,58.3,55.0,29.94,WSW,246,10.0,12.0,89,0.00,,,0.00,meteohub,2013-08-21 07:57:00,
2013-08-21 01:02:00,58.3,55.4,29.94,WSW,243,8.0,13.0,90,0.00,,,0.00,meteohub,2013-08-21 08:02:00,
2013-08-21 01:07:00,58.3,55.4,29.94,SW,218,7.0,13.0,90,0.00,,,0.00,meteohub,2013-08-21 08:07:00,
2013-08-21 01:12:00,58.3,55.4,29.94,SW,231,6.0,11.0,90,0.00,,,0.00,meteohub,2013-08-21 08:12:00,
2013-08-21 01:17:00,58.3,55.4,29.94,WSW,243,7.0,11.0,90,0.00,,,0.00,meteohub,2013-08-21 08:17:00,
2013-08-21 01:22:00,58.3,55.0,29.94,SW,233,4.0,10.0,89,0.00,,,0.00,meteohub,2013-08-21 08:22:00,
2013-08-21 01:27:00,58.3,55.4,29.94,WSW,245,7.0,11.0,90,0.00,,,0.00,meteohub,2013-08-21 08:27:00,
2013-08-21 01:32:00,58.3,55.4,29.94,SW,234,5.0,11.0,90,0.00,,,0.00,meteohub,2013-08-21 08:32:00,
2013-08-21 01:37:00,58.3,55.4,29.94,SW,233,9.0,10.0,90,0.00,,,0.00,meteohub,2013-08-21 08:37:00,
2013-08-21 01:42:00,58.3,55.4,29.94,South,191,7.0,11.0,90,0.00,,,0.00,meteohub,2013-08-21 08:42:00,
2013-08-21 01:47:00,58.3,55.4,29.94,WSW,251,5.0,11.0,90,0.00,,,0.00,meteohub,2013-08-21 08:47:00,
2013-08-21 01:52:00,58.1,55.2,29.94,SW,231,5.0,11.0,90,0.00,,,0.00,meteohub,2013-08-21 08:52:00,
2013-08-21 01:57:00,58.3,55.4,29.94,SW,236,6.0,10.0,90,0.00,,,0.00,meteohub,2013-08-21 08:57:00,
2013-08-21 02:03:00,57.9,55.0,29.94,SW,232,8.0,10.0,90,0.00,,,0.00,meteohub,2013-08-21 09:03:00,
2013-08-21 02:08:00,57.9,55.0,29.94,WSW,239,6.0,11.0,90,0.00,,,0.00,meteohub,2013-08-21 09:08:00,
2013-08-21 02:13:00,57.9,55.0,29.94,WSW,239,2.0,11.0,90,0.00,,,0.00,meteohub,2013-08-21 09:13:00,
2013-08-21 02:18:00,57.9,55.0,29.94,SW,216,2.0,10.0,90,0.00,,,0.00,meteohub,2013-08-21 09:18:00,
2013-08-21 02:23:00,57.9,55.0,29.94,WSW,243,4.0,8.0,90,0.00,,,0.00,meteohub,2013-08-21 09:23:00,
2013-08-21 02:28:00,57.9,55.0,29.94,SW,220,5.0,8.0,90,0.00,,,0.00,meteohub,2013-08-21 09:28:00,
2013-08-21 02:33:00,57.9,55.0,29.94,SW,230,4.0,8.0,90,0.00,,,0.00,meteohub,2013-08-21 09:33:00,
2013-08-21 02:38:00,58.1,55.2,29.94,WSW,245,6.0,9.0,90,0.00,,,0.00,meteohub,2013-08-21 09:38:00,
2013-08-21 02:43:00,58.1,55.2,29.93,WSW,241,8.0,9.0,90,0.00,,,0.00,meteohub,2013-08-21 09:43:00,
2013-08-21 02:48:00,57.9,55.0,29.93,WSW,251,7.0,10.0,90,0.00,,,0.00,meteohub,2013-08-21 09:48:00,
2013-08-21 02:53:00,57.9,55.0,29.93,WSW,239,6.0,11.0,90,0.00,,,0.00,meteohub,2013-08-21 09:53:00,
2013-08-21 02:58:00,57.9,55.0,29.93,WSW,246,8.0,11.0,90,0.00,,,0.00,meteohub,2013-08-21 09:58:00,
2013-08-21 03:03:00,57.9,55.0,29.93,SW,236,6.0,11.0,90,0.00,,,0.00,meteohub,2013-08-21 10:03:00,
2013-08-21 03:08:00,57.9,55.0,29.93,WSW,241,5.0,11.0,90,0.00,,,0.00,meteohub,2013-08-21 10:08:00,
2013-08-21 03:13:00,57.9,55.2,29.93,WSW,245,3.0,11.0,91,0.00,,,0.00,meteohub,2013-08-21 10:13:00,
2013-08-21 03:18:00,57.9,55.2,29.93,WSW,251,3.0,8.0,91,0.00,,,0.00,meteohub,2013-08-21 10:18:00,
2013-08-21 03:23:00,57.9,55.2,29.93,WSW,239,8.0,9.0,91,0.00,,,0.00,meteohub,2013-08-21 10:23:00,
2013-08-21 03:28:00,57.9,55.2,29.93,WSW,242,11.0,11.0,91,0.00,,,0.00,meteohub,2013-08-21 10:28:00,
2013-08-21 03:33:00,57.9,55.2,29.93,WSW,244,8.0,11.0,91,0.00,,,0.00,meteohub,2013-08-21 10:33:00,
2013-08-21 03:38:00,57.9,55.2,29.93,WSW,252,8.0,11.0,91,0.00,,,0.00,meteohub,2013-08-21 10:38:00,
2013-08-21 03:43:00,57.9,55.2,29.93,WSW,249,8.0,12.0,91,0.00,,,0.00,meteohub,2013-08-21 10:43:00,
2013-08-21 03:48:00,57.7,55.2,29.93,SW,233,9.0,12.0,91,0.00,,,0.00,meteohub,2013-08-21 10:48:00,
2013-08-21 03:53:00,57.7,55.2,29.93,SW,222,8.0,14.0,91,0.00,,,0.00,meteohub,2013-08-21 10:53:00,
2013-08-21 03:58:00,57.7,55.2,29.94,WSW,239,9.0,14.0,91,0.00,,,0.00,meteohub,2013-08-21 10:58:00,
2013-08-21 04:03:00,57.7,55.2,29.94,SW,220,4.0,14.0,91,0.00,,,0.00,meteohub,2013-08-21 11:03:00,
2013-08-21 04:08:00,57.7,55.2,29.94,WSW,256,10.0,12.0,91,0.00,,,0.00,meteohub,2013-08-21 11:08:00,
2013-08-21 04:13:00,57.9,55.2,29.94,SW,233,7.0,12.0,91,0.00,,,0.00,meteohub,2013-08-21 11:13:00,
2013-08-21 04:18:00,57.9,55.2,29.94,WSW,241,11.0,11.0,91,0.00,,,0.00,meteohub,2013-08-21 11:18:00,
2013-08-21 04:24:00,57.9,55.2,29.94,WSW,245,7.0,12.0,91,0.00,,,0.00,meteohub,2013-08-21 11:24:00,
2013-08-21 04:29:00,57.9,55.2,29.94,WSW,247,10.0,12.0,91,0.00,,,0.00,meteohub,2013-08-21 11:29:00,
2013-08-21 04:34:00,58.1,55.4,29.94,WSW,237,4.0,12.0,91,0.00,,,0.00,meteohub,2013-08-21 11:34:00,
2013-08-21 04:39:00,58.1,55.2,29.94,WSW,245,10.0,11.0,90,0.00,,,0.00,meteohub,2013-08-21 11:39:00,
2013-08-21 04:44:00,58.1,55.2,29.94,WSW,245,7.0,11.0,90,0.00,,,0.00,meteohub,2013-08-21 11:44:00,
2013-08-21 04:49:00,58.1,55.2,29.94,WSW,251,8.0,12.0,90,0.00,,,0.00,meteohub,2013-08-21 11:49:00,
2013-08-21 04:54:00,58.3,55.4,29.94,WSW,241,6.0,13.0,90,0.00,,,0.00,meteohub,2013-08-21 11:54:00,
2013-08-21 04:59:00,58.3,55.4,29.94,SW,233,6.0,13.0,90,0.00,,,0.00,meteohub,2013-08-21 11:59:00,
2013-08-21 05:04:00,58.3,55.4,29.94,WSW,251,7.0,13.0,90,0.00,,,0.00,meteohub,2013-08-21 12:04:00,
2013-08-21 05:09:00,58.3,55.4,29.94,West,260,8.0,12.0,90,0.00,,,0.00,meteohub,2013-08-21 12:09:00,
2013-08-21 05:14:00,58.3,55.4,29.94,WSW,243,6.0,12.0,90,0.00,,,0.00,meteohub,2013-08-21 12:14:00,
2013-08-21 05:19:00,58.3,55.0,29.94,WSW,247,5.0,12.0,89,0.00,,,0.00,meteohub,2013-08-21 12:19:00,
2013-08-21 05:24:00,58.1,54.9,29.94,WSW,245,6.0,12.0,89,0.00,,,0.00,meteohub,2013-08-21 12:24:00,
2013-08-21 05:29:00,58.1,54.9,29.94,West,259,6.0,12.0,89,0.00,,,0.00,meteohub,2013-08-21 12:29:00,
2013-08-21 05:34:00,57.9,54.7,29.94,WSW,239,8.0,12.0,89,0.00,,,0.00,meteohub,2013-08-21 12:34:00,
2013-08-21 05:39:00,57.9,54.7,29.94,WSW,240,6.0,12.0,89,0.00,,,0.00,meteohub,2013-08-21 12:39:00,
2013-08-21 05:44:00,57.9,54.7,29.94,SW,225,7.0,12.0,89,0.00,,,0.00,meteohub,2013-08-21 12:44:00,
2013-08-21 05:49:00,57.9,54.7,29.94,WSW,247,8.0,12.0,89,0.00,,,0.00,meteohub,2013-08-21 12:49:00,
2013-08-21 05:54:00,57.9,54.7,29.94,SW,235,6.0,11.0,89,0.00,,,0.00,meteohub,2013-08-21 12:54:00,
2013-08-21 05:59:00,57.9,54.7,29.94,WSW,249,8.0,11.0,89,0.00,,,0.00,meteohub,2013-08-21 12:59:00,
2013-08-21 06:04:00,57.9,54.7,29.95,SW,220,5.0,11.0,89,0.00,,,0.00,meteohub,2013-08-21 13:04:00,
2013-08-21 06:09:00,57.9,54.7,29.95,SW,236,7.0,10.0,89,0.00,,,0.00,meteohub,2013-08-21 13:09:00,
2013-08-21 06:14:00,57.9,54.7,29.95,WSW,258,9.0,10.0,89,0.00,,,0.00,meteohub,2013-08-21 13:14:00,
2013-08-21 06:19:00,57.9,54.7,29.95,WSW,247,6.0,11.0,89,0.00,,,0.00,meteohub,2013-08-21 13:19:00,
2013-08-21 06:24:00,58.1,54.9,29.95,WSW,247,6.0,11.0,89,0.00,,,0.00,meteohub,2013-08-21 13:24:00,
2013-08-21 06:29:00,58.1,54.9,29.96,WSW,238,3.0,11.0,89,0.00,,,0.00,meteohub,2013-08-21 13:29:00,
2013-08-21 06:34:00,58.1,54.9,29.96,SW,235,7.0,10.0,89,0.00,,,0.00,meteohub,2013-08-21 13:34:00,
2013-08-21 06:39:00,58.3,55.0,29.96,SW,236,6.0,9.0,89,0.00,,,0.00,meteohub,2013-08-21 13:39:00,
2013-08-21 06:44:00,58.3,55.0,29.96,WSW,241,7.0,10.0,89,0.00,,,0.00,meteohub,2013-08-21 13:44:00,
2013-08-21 06:49:00,58.3,55.0,29.96,WSW,251,6.0,10.0,89,0.00,,,0.00,meteohub,2013-08-21 13:49:00,
2013-08-21 06:54:00,58.3,55.0,29.96,WSW,251,8.0,10.0,89,0.00,,,0.00,meteohub,2013-08-21 13:54:00,
2013-08-21 06:59:00,58.3,55.0,29.96,WSW,251,9.0,10.0,89,0.00,,,0.00,meteohub,2013-08-21 13:59:00,
2013-08-21 07:04:00,58.5,55.2,29.96,WSW,249,4.0,10.0,89,0.00,,,0.00,meteohub,2013-08-21 14:04:00,
2013-08-21 07:09:00,58.5,55.2,29.96,WSW,243,10.0,10.0,89,0.00,,,0.00,meteohub,2013-08-21 14:09:00,
2013-08-21 07:14:00,58.3,55.0,29.96,West,264,6.0,11.0,89,0.00,,,0.00,meteohub,2013-08-21 14:14:00,
2013-08-21 07:19:00,58.5,55.2,29.97,WSW,244,4.0,11.0,89,0.00,,,0.00,meteohub,2013-08-21 14:19:00,
2013-08-21 07:25:00,58.5,55.2,29.97,SW,235,7.0,12.0,89,0.00,,,0.00,meteohub,2013-08-21 14:25:00,
2013-08-21 07:30:00,58.6,55.4,29.97,SW,235,11.0,12.0,89,0.00,,,0.00,meteohub,2013-08-21 14:30:00,
2013-08-21 07:35:00,58.5,55.2,29.97,WSW,240,7.0,12.0,89,0.00,,,0.00,meteohub,2013-08-21 14:35:00,
2013-08-21 07:40:00,58.5,55.2,29.97,SW,236,9.0,12.0,89,0.00,,,0.00,meteohub,2013-08-21 14:40:00,
2013-08-21 07:45:00,58.5,55.2,29.97,West,262,12.0,12.0,89,0.00,,,0.00,meteohub,2013-08-21 14:45:00,
2013-08-21 07:50:00,58.5,54.9,29.98,WSW,239,7.0,12.0,88,0.00,,,0.00,meteohub,2013-08-21 14:50:00,
2013-08-21 07:55:00,58.5,54.9,29.98,WSW,244,8.0,12.0,88,0.00,,,0.00,meteohub,2013-08-21 14:55:00,
2013-08-21 08:00:00,58.5,54.9,29.97,WSW,252,7.0,12.0,88,0.00,,,0.00,meteohub,2013-08-21 15:00:00,
2013-08-21 08:05:00,58.5,54.9,29.98,SW,231,3.0,12.0,88,0.00,,,0.00,meteohub,2013-08-21 15:05:00,
2013-08-21 08:10:00,58.5,54.9,29.98,WSW,247,6.0,10.0,88,0.00,,,0.00,meteohub,2013-08-21 15:10:00,
2013-08-21 08:15:00,58.5,54.9,29.98,West,268,6.0,10.0,88,0.00,,,0.00,meteohub,2013-08-21 15:15:00,
2013-08-21 08:20:00,58.6,55.0,29.98,WSW,244,8.0,10.0,88,0.00,,,0.00,meteohub,2013-08-21 15:20:00,
2013-08-21 08:25:00,58.5,54.9,29.98,WSW,253,10.0,10.0,88,0.00,,,0.00,meteohub,2013-08-21 15:25:00,
2013-08-21 08:30:00,58.6,55.0,29.98,WSW,249,9.0,12.0,88,0.00,,,0.00,meteohub,2013-08-21 15:30:00,
2013-08-21 08:35:00,58.6,55.0,29.98,WSW,248,11.0,12.0,88,0.00,,,0.00,meteohub,2013-08-21 15:35:00,
2013-08-21 08:40:00,58.6,54.9,29.99,WSW,243,11.0,12.0,87,0.00,,,0.00,meteohub,2013-08-21 15:40:00,
2013-08-21 08:45:00,58.6,54.9,29.99,WSW,253,11.0,13.0,87,0.00,,,0.00,meteohub,2013-08-21 15:45:00,
2013-08-21 08:50:00,58.6,54.9,29.99,WSW,247,13.0,13.0,87,0.00,,,0.00,meteohub,2013-08-21 15:50:00,
2013-08-21 08:55:00,58.5,54.3,29.99,SW,223,5.0,15.0,86,0.00,,,0.00,meteohub,2013-08-21 15:55:00,
2013-08-21 09:00:00,58.6,54.5,29.99,SW,229,6.0,15.0,86,0.00,,,0.00,meteohub,2013-08-21 16:00:00,
2013-08-21 09:05:00,59.0,54.9,29.99,West,266,5.0,14.0,86,0.00,,,0.00,meteohub,2013-08-21 16:05:00,
2013-08-21 09:10:00,59.0,54.9,29.99,WSW,249,7.0,13.0,86,0.00,,,0.00,meteohub,2013-08-21 16:10:00,
2013-08-21 09:15:00,58.8,54.7,29.99,WSW,251,8.0,13.0,86,0.00,,,0.00,meteohub,2013-08-21 16:15:00,
2013-08-21 09:20:00,58.8,54.7,29.99,WSW,239,8.0,14.0,86,0.00,,,0.00,meteohub,2013-08-21 16:20:00,
2013-08-21 09:25:00,59.0,54.9,29.99,SW,231,4.0,14.0,86,0.00,,,0.00,meteohub,2013-08-21 16:25:00,
2013-08-21 09:30:00,59.2,55.0,29.99,WSW,239,10.0,10.0,86,0.00,,,0.00,meteohub,2013-08-21 16:30:00,
2013-08-21 09:35:00,59.2,54.7,29.99,WSW,254,7.0,11.0,85,0.00,,,0.00,meteohub,2013-08-21 16:35:00,
2013-08-21 09:40:00,59.2,54.7,29.99,WSW,242,6.0,11.0,85,0.00,,,0.00,meteohub,2013-08-21 16:40:00,
2013-08-21 09:45:00,59.2,54.7,29.99,SW,214,7.0,14.0,85,0.00,,,0.00,meteohub,2013-08-21 16:45:00,
2013-08-21 09:50:00,59.4,54.9,29.99,WSW,237,7.0,14.0,85,0.00,,,0.00,meteohub,2013-08-21 16:50:00,
2013-08-21 09:55:00,59.4,54.9,29.99,SW,231,7.0,14.0,85,0.00,,,0.00,meteohub,2013-08-21 16:55:00,
2013-08-21 10:00:00,59.5,55.0,29.99,SW,216,7.0,10.0,85,0.00,,,0.00,meteohub,2013-08-21 17:00:00,
2013-08-21 10:05:00,59.4,54.9,29.99,WSW,237,7.0,10.0,85,0.00,,,0.00,meteohub,2013-08-21 17:05:00,
2013-08-21 10:10:00,59.4,54.9,29.99,WSW,237,8.0,12.0,85,0.00,,,0.00,meteohub,2013-08-21 17:10:00,
2013-08-21 10:15:00,59.4,54.9,29.99,WSW,238,6.0,14.0,85,0.00,,,0.00,meteohub,2013-08-21 17:15:00,
2013-08-21 10:20:00,59.4,54.5,29.99,SW,232,5.0,14.0,84,0.00,,,0.00,meteohub,2013-08-21 17:20:00,
2013-08-21 10:25:00,59.5,54.7,29.99,WSW,241,8.0,12.0,84,0.00,,,0.00,meteohub,2013-08-21 17:25:00,
2013-08-21 10:31:00,59.5,54.7,29.99,WSW,244,4.0,12.0,84,0.00,,,0.00,meteohub,2013-08-21 17:31:00,
2013-08-21 10:36:00,59.7,54.9,29.99,SSW,206,10.0,10.0,84,0.00,,,0.00,meteohub,2013-08-21 17:36:00,
2013-08-21 10:41:00,59.7,54.9,29.99,SW,234,7.0,14.0,84,0.00,,,0.00,meteohub,2013-08-21 17:41:00,
2013-08-21 10:46:00,59.7,54.9,29.99,WSW,256,4.0,14.0,84,0.00,,,0.00,meteohub,2013-08-21 17:46:00,
2013-08-21 10:51:00,59.7,54.9,30.00,WSW,247,8.0,14.0,84,0.00,,,0.00,meteohub,2013-08-21 17:51:00,
2013-08-21 10:56:00,60.1,55.2,30.00,WSW,247,9.0,12.0,84,0.00,,,0.00,meteohub,2013-08-21 17:56:00,
2013-08-21 11:01:00,60.1,54.9,30.00,SSW,206,8.0,11.0,83,0.00,,,0.00,meteohub,2013-08-21 18:01:00,
2013-08-21 11:06:00,60.1,55.2,29.99,SW,222,8.0,11.0,84,0.00,,,0.00,meteohub,2013-08-21 18:06:00,
2013-08-21 11:11:00,60.3,55.0,29.99,SSW,213,7.0,11.0,83,0.00,,,0.00,meteohub,2013-08-21 18:11:00,
2013-08-21 11:16:00,60.4,54.9,29.99,SW,236,6.0,11.0,82,0.00,,,0.00,meteohub,2013-08-21 18:16:00,
2013-08-21 11:21:00,60.6,55.0,29.99,SW,216,7.0,11.0,82,0.00,,,0.00,meteohub,2013-08-21 18:21:00,
2013-08-21 11:26:00,60.4,55.2,29.99,SSE,168,7.0,11.0,83,0.00,,,0.00,meteohub,2013-08-21 18:26:00,
2013-08-21 11:31:00,61.0,56.1,29.99,South,189,10.0,11.0,84,0.00,,,0.00,meteohub,2013-08-21 18:31:00,
2013-08-21 11:36:00,61.2,55.6,29.99,SW,214,5.0,12.0,82,0.00,,,0.00,meteohub,2013-08-21 18:36:00,
2013-08-21 11:41:00,61.3,56.1,29.99,SSW,212,6.0,12.0,83,0.00,,,0.00,meteohub,2013-08-21 18:41:00,
2013-08-21 11:46:00,61.5,55.9,29.99,SW,220,4.0,12.0,82,0.00,,,0.00,meteohub,2013-08-21 18:46:00,
2013-08-21 11:51:00,61.9,55.9,29.99,SSW,206,7.0,12.0,81,0.00,,,0.00,meteohub,2013-08-21 18:51:00,
2013-08-21 11:56:00,61.3,56.1,29.99,South,183,9.0,12.0,83,0.00,,,0.00,meteohub,2013-08-21 18:56:00,
2013-08-21 12:01:00,61.3,55.8,29.99,SSW,208,8.0,12.0,82,0.00,,,0.00,meteohub,2013-08-21 19:01:00,
2013-08-21 12:06:00,61.7,56.1,29.99,SSW,199,9.0,12.0,82,0.00,,,0.00,meteohub,2013-08-21 19:06:00,
2013-08-21 12:11:00,61.5,55.9,29.99,SSW,206,4.0,10.0,82,0.00,,,0.00,meteohub,2013-08-21 19:11:00,
2013-08-21 12:16:00,61.5,55.9,29.99,South,172,8.0,13.0,82,0.00,,,0.00,meteohub,2013-08-21 19:16:00,
2013-08-21 12:21:00,61.5,55.9,29.99,South,181,8.0,13.0,82,0.00,,,0.00,meteohub,2013-08-21 19:21:00,
2013-08-21 12:26:00,62.1,56.8,29.98,South,191,8.0,13.0,83,0.00,,,0.00,meteohub,2013-08-21 19:26:00,
2013-08-21 12:31:00,62.2,56.3,29.98,South,179,8.0,12.0,81,0.00,,,0.00,meteohub,2013-08-21 19:31:00,
2013-08-21 12:36:00,62.1,56.1,29.98,South,184,10.0,11.0,81,0.00,,,0.00,meteohub,2013-08-21 19:36:00,
2013-08-21 12:41:00,61.9,55.9,29.98,South,179,9.0,11.0,81,0.00,,,0.00,meteohub,2013-08-21 19:41:00,
2013-08-21 12:46:00,62.2,56.3,29.98,South,179,12.0,12.0,81,0.00,,,0.00,meteohub,2013-08-21 19:46:00,
2013-08-21 12:51:00,63.0,56.7,29.98,SSW,212,7.0,13.0,80,0.00,,,0.00,meteohub,2013-08-21 19:51:00,
2013-08-21 12:56:00,63.3,56.7,29.98,SSW,199,4.0,13.0,79,0.00,,,0.00,meteohub,2013-08-21 19:56:00,
2013-08-21 13:01:00,64.2,56.8,29.97,South,189,8.0,12.0,77,0.00,,,0.00,meteohub,2013-08-21 20:01:00,
2013-08-21 13:06:00,64.6,57.2,29.97,SSW,208,7.0,12.0,77,0.00,,,0.00,meteohub,2013-08-21 20:06:00,
2013-08-21 13:11:00,64.2,56.5,29.97,SW,223,8.0,12.0,76,0.00,,,0.00,meteohub,2013-08-21 20:11:00,
2013-08-21 13:16:00,64.2,57.2,29.97,SSW,208,5.0,13.0,78,0.00,,,0.00,meteohub,2013-08-21 20:16:00,
2013-08-21 13:21:00,64.9,57.2,29.97,South,176,8.0,13.0,76,0.00,,,0.00,meteohub,2013-08-21 20:21:00,
2013-08-21 13:26:00,64.4,57.0,29.97,South,170,9.0,14.0,77,0.00,,,0.00,meteohub,2013-08-21 20:26:00,
2013-08-21 13:32:00,64.0,57.0,29.97,South,179,8.0,15.0,78,0.00,,,0.00,meteohub,2013-08-21 20:32:00,
2013-08-21 13:37:00,63.7,56.3,29.97,SSW,202,9.0,15.0,77,0.00,,,0.00,meteohub,2013-08-21 20:37:00,
2013-08-21 13:42:00,63.3,56.3,29.97,South,169,9.0,16.0,78,0.00,,,0.00,meteohub,2013-08-21 20:42:00,
2013-08-21 13:47:00,63.3,56.3,29.96,SSW,200,8.0,16.0,78,0.00,,,0.00,meteohub,2013-08-21 20:47:00,
2013-08-21 13:52:00,63.5,56.8,29.96,South,185,8.0,16.0,79,0.00,,,0.00,meteohub,2013-08-21 20:52:00,
2013-08-21 13:57:00,63.7,56.7,29.96,South,174,5.0,16.0,78,0.00,,,0.00,meteohub,2013-08-21 20:57:00,
2013-08-21 14:02:00,64.0,56.7,29.96,South,171,9.0,17.0,77,0.00,,,0.00,meteohub,2013-08-21 21:02:00,
2013-08-21 14:07:00,63.9,56.5,29.96,SSW,197,12.0,17.0,77,0.00,,,0.00,meteohub,2013-08-21 21:07:00,
2013-08-21 14:12:00,63.9,56.8,29.96,SSW,199,13.0,15.0,78,0.00,,,0.00,meteohub,2013-08-21 21:12:00,
2013-08-21 14:17:00,63.7,56.3,29.96,SSW,210,9.0,15.0,77,0.00,,,0.00,meteohub,2013-08-21 21:17:00,
2013-08-21 14:22:00,63.9,56.5,29.95,SSW,201,11.0,15.0,77,0.00,,,0.00,meteohub,2013-08-21 21:22:00,
2013-08-21 14:27:00,64.2,56.8,29.95,SW,225,11.0,13.0,77,0.00,,,0.00,meteohub,2013-08-21 21:27:00,
2013-08-21 14:32:00,64.2,56.1,29.95,SW,218,8.0,13.0,75,0.00,,,0.00,meteohub,2013-08-21 21:32:00,
2013-08-21 14:37:00,64.2,56.1,29.95,South,187,9.0,14.0,75,0.00,,,0.00,meteohub,2013-08-21 21:37:00,
2013-08-21 14:42:00,64.6,56.8,29.95,SW,228,13.0,14.0,76,0.00,,,0.00,meteohub,2013-08-21 21:42:00,
2013-08-21 14:47:00,64.2,56.5,29.95,South,187,11.0,14.0,76,0.00,,,0.00,meteohub,2013-08-21 21:47:00,
2013-08-21 14:52:00,63.9,56.5,29.94,SW,216,8.0,15.0,77,0.00,,,0.00,meteohub,2013-08-21 21:52:00,
2013-08-21 14:57:00,64.0,56.7,29.94,South,176,15.0,17.0,77,0.00,,,0.00,meteohub,2013-08-21 21:57:00,
2013-08-21 15:02:00,64.0,57.0,29.94,South,181,12.0,17.0,78,0.00,,,0.00,meteohub,2013-08-21 22:02:00,
2013-08-21 15:07:00,64.2,57.2,29.94,SSW,203,10.0,16.0,78,0.00,,,0.00,meteohub,2013-08-21 22:07:00,
2013-08-21 15:12:00,64.2,56.5,29.93,SSW,201,9.0,16.0,76,0.00,,,0.00,meteohub,2013-08-21 22:12:00,
2013-08-21 15:17:00,63.9,56.8,29.93,South,191,10.0,17.0,78,0.00,,,0.00,meteohub,2013-08-21 22:17:00,
2013-08-21 15:22:00,63.7,56.3,29.93,SSW,208,13.0,17.0,77,0.00,,,0.00,meteohub,2013-08-21 22:22:00,
2013-08-21 15:27:00,63.3,56.7,29.92,SSW,208,12.0,17.0,79,0.00,,,0.00,meteohub,2013-08-21 22:27:00,
2013-08-21 15:32:00,63.5,57.2,29.92,SSW,193,11.0,18.0,80,0.00,,,0.00,meteohub,2013-08-21 22:32:00,
2013-08-21 15:37:00,63.5,56.5,29.92,SW,216,12.0,18.0,78,0.00,,,0.00,meteohub,2013-08-21 22:37:00,
2013-08-21 15:42:00,63.5,57.2,29.92,SSW,199,14.0,19.0,80,0.00,,,0.00,meteohub,2013-08-21 22:42:00,
2013-08-21 15:47:00,63.7,57.0,29.92,SSW,196,18.0,19.0,79,0.00,,,0.00,meteohub,2013-08-21 22:47:00,
2013-08-21 15:52:00,63.1,56.5,29.92,SSW,194,13.0,19.0,79,0.00,,,0.00,meteohub,2013-08-21 22:52:00,
2013-08-21 15:57:00,63.5,56.5,29.92,SSW,195,7.0,18.0,78,0.00,,,0.00,meteohub,2013-08-21 22:57:00,
2013-08-21 16:02:00,63.9,57.2,29.92,South,177,13.0,18.0,79,0.00,,,0.00,meteohub,2013-08-21 23:02:00,
2013-08-21 16:07:00,64.2,57.2,29.92,South,188,15.0,18.0,78,0.00,,,0.00,meteohub,2013-08-21 23:07:00,
2013-08-21 16:12:00,64.0,57.0,29.92,SSE,165,8.0,18.0,78,0.00,,,0.00,meteohub,2013-08-21 23:12:00,
2013-08-21 16:17:00,63.9,56.8,29.91,South,185,13.0,18.0,78,0.00,,,0.00,meteohub,2013-08-21 23:17:00,
2013-08-21 16:22:00,63.7,57.0,29.91,SSW,213,15.0,17.0,79,0.00,,,0.00,meteohub,2013-08-21 23:22:00,
2013-08-21 16:27:00,63.7,57.0,29.91,SSW,195,6.0,18.0,79,0.00,,,0.00,meteohub,2013-08-21 23:27:00,
2013-08-21 16:32:00,63.7,57.4,29.91,South,181,15.0,18.0,80,0.00,,,0.00,meteohub,2013-08-21 23:32:00,
2013-08-21 16:38:00,63.7,57.4,29.91,SSW,200,9.0,18.0,80,0.00,,,0.00,meteohub,2013-08-21 23:38:00,
2013-08-21 16:43:00,64.0,57.4,29.91,South,179,15.0,18.0,79,0.00,,,0.00,meteohub,2013-08-21 23:43:00,
2013-08-21 16:48:00,63.9,57.6,29.91,SSW,197,10.0,18.0,80,0.00,,,0.00,meteohub,2013-08-21 23:48:00,
2013-08-21 16:53:00,64.8,58.1,29.91,SSW,197,13.0,16.0,79,0.00,,,0.00,meteohub,2013-08-21 23:53:00,
2013-08-21 16:58:00,64.4,57.4,29.91,SSW,207,7.0,15.0,78,0.00,,,0.00,meteohub,2013-08-21 23:58:00,
2013-08-21 17:03:00,64.8,58.1,29.91,SSW,202,10.0,15.0,79,0.00,,,0.00,meteohub,2013-08-22 00:03:00,
2013-08-21 17:08:00,64.4,57.7,29.91,SSW,199,8.0,15.0,79,0.00,,,0.00,meteohub,2013-08-22 00:08:00,
2013-08-21 17:13:00,64.4,57.7,29.91,South,181,7.0,17.0,79,0.00,,,0.00,meteohub,2013-08-22 00:13:00,
2013-08-21 17:18:00,64.6,57.9,29.91,SSW,197,6.0,17.0,79,0.00,,,0.00,meteohub,2013-08-22 00:18:00,
2013-08-21 17:23:00,64.9,57.9,29.91,South,177,12.0,17.0,78,0.00,,,0.00,meteohub,2013-08-22 00:23:00,
2013-08-21 17:28:00,64.6,57.9,29.91,SSW,197,8.0,15.0,79,0.00,,,0.00,meteohub,2013-08-22 00:28:00,
2013-08-21 17:33:00,64.8,57.7,29.91,South,169,9.0,14.0,78,0.00,,,0.00,meteohub,2013-08-22 00:33:00,
2013-08-21 17:38:00,64.8,57.7,29.91,South,186,6.0,14.0,78,0.00,,,0.00,meteohub,2013-08-22 00:38:00,
2013-08-21 17:43:00,64.8,57.7,29.91,SSW,192,7.0,14.0,78,0.00,,,0.00,meteohub,2013-08-22 00:43:00,
2013-08-21 17:48:00,64.6,57.9,29.91,South,177,9.0,14.0,79,0.00,,,0.00,meteohub,2013-08-22 00:48:00,
2013-08-21 17:53:00,64.4,57.7,29.91,South,179,13.0,14.0,79,0.00,,,0.00,meteohub,2013-08-22 00:53:00,
2013-08-21 17:58:00,64.2,57.6,29.91,SSW,197,5.0,14.0,79,0.00,,,0.00,meteohub,2013-08-22 00:58:00,
2013-08-21 18:03:00,64.6,57.6,29.91,SSW,203,7.0,14.0,78,0.00,,,0.00,meteohub,2013-08-22 01:03:00,
2013-08-21 18:08:00,64.6,57.9,29.92,SSW,210,5.0,14.0,79,0.00,,,0.00,meteohub,2013-08-22 01:08:00,
2013-08-21 18:13:00,64.0,57.4,29.92,South,181,12.0,13.0,79,0.00,,,0.00,meteohub,2013-08-22 01:13:00,
2013-08-21 18:18:00,64.2,57.6,29.92,SSW,192,7.0,15.0,79,0.00,,,0.00,meteohub,2013-08-22 01:18:00,
2013-08-21 18:23:00,64.2,57.6,29.92,SSW,213,6.0,15.0,79,0.00,,,0.00,meteohub,2013-08-22 01:23:00,
2013-08-21 18:28:00,64.4,57.0,29.93,SSW,199,7.0,15.0,77,0.00,,,0.00,meteohub,2013-08-22 01:28:00,
2013-08-21 18:33:00,64.0,56.7,29.92,SSW,212,11.0,13.0,77,0.00,,,0.00,meteohub,2013-08-22 01:33:00,
2013-08-21 18:38:00,63.9,56.5,29.92,SW,222,8.0,14.0,77,0.00,,,0.00,meteohub,2013-08-22 01:38:00,
2013-08-21 18:43:00,63.9,56.8,29.93,SW,235,7.0,14.0,78,0.00,,,0.00,meteohub,2013-08-22 01:43:00,
2013-08-21 18:48:00,63.9,56.5,29.92,SSW,206,7.0,13.0,77,0.00,,,0.00,meteohub,2013-08-22 01:48:00,
2013-08-21 18:53:00,63.7,56.7,29.92,SSW,199,9.0,13.0,78,0.00,,,0.00,meteohub,2013-08-22 01:53:00,
2013-08-21 18:58:00,63.7,57.0,29.92,SW,220,8.0,13.0,79,0.00,,,0.00,meteohub,2013-08-22 01:58:00,
2013-08-21 19:03:00,63.3,56.7,29.92,SW,233,6.0,13.0,79,0.00,,,0.00,meteohub,2013-08-22 02:03:00,
2013-08-21 19:08:00,63.1,56.1,29.92,SSW,208,7.0,13.0,78,0.00,,,0.00,meteohub,2013-08-22 02:08:00,
2013-08-21 19:13:00,62.8,56.1,29.92,SW,216,8.0,13.0,79,0.00,,,0.00,meteohub,2013-08-22 02:13:00,
2013-08-21 19:18:00,62.8,56.5,29.93,SW,218,10.0,13.0,80,0.00,,,0.00,meteohub,2013-08-22 02:18:00,
2013-08-21 19:23:00,62.8,56.5,29.93,SSW,208,6.0,13.0,80,0.00,,,0.00,meteohub,2013-08-22 02:23:00,
2013-08-21 19:28:00,62.8,56.1,29.93,South,182,9.0,13.0,79,0.00,,,0.00,meteohub,2013-08-22 02:28:00,
2013-08-21 19:33:00,62.2,55.9,29.93,SSW,210,7.0,12.0,80,0.00,,,0.00,meteohub,2013-08-22 02:33:00,
2013-08-21 19:39:00,62.1,55.8,29.94,SSW,208,7.0,13.0,80,0.00,,,0.00,meteohub,2013-08-22 02:39:00,
2013-08-21 19:44:00,61.9,55.9,29.94,SSW,199,7.0,13.0,81,0.00,,,0.00,meteohub,2013-08-22 02:44:00,
2013-08-21 19:49:00,61.5,55.9,29.94,SSW,204,7.0,13.0,82,0.00,,,0.00,meteohub,2013-08-22 02:49:00,
2013-08-21 19:54:00,61.5,55.9,29.94,SW,223,7.0,13.0,82,0.00,,,0.00,meteohub,2013-08-22 02:54:00,
2013-08-21 19:59:00,61.3,55.8,29.94,WSW,245,9.0,12.0,82,0.00,,,0.00,meteohub,2013-08-22 02:59:00,
2013-08-21 20:04:00,61.3,55.8,29.94,SW,225,8.0,12.0,82,0.00,,,0.00,meteohub,2013-08-22 03:04:00,
2013-08-21 20:09:00,61.3,56.1,29.94,SSW,210,7.0,13.0,83,0.00,,,0.00,meteohub,2013-08-22 03:09:00,
2013-08-21 20:14:00,61.2,55.9,29.94,SW,219,13.0,13.0,83,0.00,,,0.00,meteohub,2013-08-22 03:14:00,
2013-08-21 20:19:00,61.0,55.8,29.94,SW,231,6.0,13.0,83,0.00,,,0.00,meteohub,2013-08-22 03:19:00,
2013-08-21 20:24:00,61.0,55.8,29.94,SW,234,7.0,13.0,83,0.00,,,0.00,meteohub,2013-08-22 03:24:00,
2013-08-21 20:29:00,60.8,55.2,29.94,SW,233,6.0,13.0,82,0.00,,,0.00,meteohub,2013-08-22 03:29:00,
2013-08-21 20:34:00,60.6,55.4,29.94,SW,218,5.0,10.0,83,0.00,,,0.00,meteohub,2013-08-22 03:34:00,
2013-08-21 20:39:00,60.6,55.4,29.95,SW,218,5.0,10.0,83,0.00,,,0.00,meteohub,2013-08-22 03:39:00,
2013-08-21 20:44:00,60.4,55.2,29.95,WSW,239,7.0,11.0,83,0.00,,,0.00,meteohub,2013-08-22 03:44:00,
2013-08-21 20:49:00,60.3,55.0,29.95,WSW,247,5.0,11.0,83,0.00,,,0.00,meteohub,2013-08-22 03:49:00,
2013-08-21 20:54:00,60.3,55.0,29.95,SSW,204,3.0,11.0,83,0.00,,,0.00,meteohub,2013-08-22 03:54:00,
2013-08-21 20:59:00,60.3,55.4,29.95,SSW,208,5.0,11.0,84,0.00,,,0.00,meteohub,2013-08-22 03:59:00,
2013-08-21 21:01:00,60.3,55.4,29.95,SSW,210,6.0,9.0,84,0.00,,,0.00,meteohub,2013-08-22 04:01:00,
2013-08-21 21:02:00,60.3,55.4,29.95,SW,222,8.0,9.0,84,0.00,,,0.00,meteohub,2013-08-22 04:02:00,
2013-08-21 21:07:00,60.3,55.4,29.96,SSW,208,7.0,8.0,84,0.00,,,0.00,meteohub,2013-08-22 04:07:00,
2013-08-21 21:13:00,60.3,55.4,29.96,South,187,5.0,8.0,84,0.00,,,0.00,meteohub,2013-08-22 04:13:00,
2013-08-21 21:18:00,60.3,55.4,29.96,SSW,206,5.0,8.0,84,0.00,,,0.00,meteohub,2013-08-22 04:18:00,
2013-08-21 21:23:00,60.3,55.4,29.96,SSW,205,2.0,8.0,84,0.00,,,0.00,meteohub,2013-08-22 04:23:00,
2013-08-21 21:28:00,60.3,55.4,29.96,SSW,204,4.0,8.0,84,0.00,,,0.00,meteohub,2013-08-22 04:28:00,
2013-08-21 21:33:00,60.3,55.8,29.96,South,189,5.0,8.0,85,0.00,,,0.00,meteohub,2013-08-22 04:33:00,
2013-08-21 21:38:00,60.1,55.6,29.96,SSW,201,4.0,8.0,85,0.00,,,0.00,meteohub,2013-08-22 04:38:00,
2013-08-21 21:43:00,60.1,55.6,29.96,SSW,193,4.0,8.0,85,0.00,,,0.00,meteohub,2013-08-22 04:43:00,
2013-08-21 21:48:00,59.9,55.4,29.96,SW,228,6.0,8.0,85,0.00,,,0.00,meteohub,2013-08-22 04:48:00,
2013-08-21 21:53:00,59.9,55.4,29.96,SW,226,5.0,10.0,85,0.00,,,0.00,meteohub,2013-08-22 04:53:00,
2013-08-21 21:58:00,59.9,55.4,29.96,SSW,210,5.0,10.0,85,0.00,,,0.00,meteohub,2013-08-22 04:58:00,
2013-08-21 22:03:00,59.7,55.2,29.96,SW,231,3.0,12.0,85,0.00,,,0.00,meteohub,2013-08-22 05:03:00,
2013-08-21 22:08:00,59.7,55.2,29.96,SW,217,7.0,12.0,85,0.00,,,0.00,meteohub,2013-08-22 05:08:00,
2013-08-21 22:13:00,59.7,55.2,29.97,SW,236,10.0,11.0,85,0.00,,,0.00,meteohub,2013-08-22 05:13:00,
2013-08-21 22:18:00,59.5,55.0,29.97,SW,231,4.0,10.0,85,0.00,,,0.00,meteohub,2013-08-22 05:18:00,
2013-08-21 22:23:00,59.5,55.0,29.97,SSW,208,4.0,10.0,85,0.00,,,0.00,meteohub,2013-08-22 05:23:00,
2013-08-21 22:28:00,59.5,55.4,29.97,SSW,211,3.0,10.0,86,0.00,,,0.00,meteohub,2013-08-22 05:28:00,
2013-08-21 22:33:00,59.5,55.4,29.97,SW,214,4.0,9.0,86,0.00,,,0.00,meteohub,2013-08-22 05:33:00,
2013-08-21 22:38:00,59.4,55.2,29.97,SW,224,6.0,9.0,86,0.00,,,0.00,meteohub,2013-08-22 05:38:00,
2013-08-21 22:43:00,59.4,54.9,29.97,SW,233,3.0,9.0,85,0.00,,,0.00,meteohub,2013-08-22 05:43:00,
2013-08-21 22:48:00,59.4,55.2,29.97,SW,233,5.0,9.0,86,0.00,,,0.00,meteohub,2013-08-22 05:48:00,
2013-08-21 22:53:00,59.4,55.2,29.97,SW,235,2.0,9.0,86,0.00,,,0.00,meteohub,2013-08-22 05:53:00,
2013-08-21 22:58:00,59.2,55.0,29.97,SW,231,6.0,9.0,86,0.00,,,0.00,meteohub,2013-08-22 05:58:00,
2013-08-21 23:03:00,59.2,55.0,29.97,WSW,243,3.0,9.0,86,0.00,,,0.00,meteohub,2013-08-22 06:03:00,
2013-08-21 23:08:00,59.2,55.0,29.97,SW,231,4.0,9.0,86,0.00,,,0.00,meteohub,2013-08-22 06:08:00,
2013-08-21 23:13:00,59.2,55.0,29.97,SSW,211,6.0,9.0,86,0.00,,,0.00,meteohub,2013-08-22 06:13:00,
2013-08-21 23:18:00,59.2,55.0,29.97,SW,214,5.0,8.0,86,0.00,,,0.00,meteohub,2013-08-22 06:18:00,
2013-08-21 23:23:00,59.0,54.9,29.97,SSW,212,2.0,8.0,86,0.00,,,0.00,meteohub,2013-08-22 06:23:00,
2013-08-21 23:28:00,59.0,54.9,29.97,SW,220,3.0,9.0,86,0.00,,,0.00,meteohub,2013-08-22 06:28:00,
2013-08-21 23:33:00,59.0,54.9,29.97,SW,226,5.0,9.0,86,0.00,,,0.00,meteohub,2013-08-22 06:33:00,
2013-08-21 23:38:00,59.0,54.9,29.97,SSW,200,5.0,9.0,86,0.00,,,0.00,meteohub,2013-08-22 06:38:00,
2013-08-21 23:43:00,59.0,54.9,29.96,SSW,210,6.0,9.0,86,0.00,,,0.00,meteohub,2013-08-22 06:43:00,
2013-08-21 23:48:00,58.8,55.0,29.96,SSW,198,5.0,8.0,87,0.00,,,0.00,meteohub,2013-08-22 06:48:00,
2013-08-21 23:53:00,58.8,55.0,29.96,SSW,199,5.0,8.0,87,0.00,,,0.00,meteohub,2013-08-22 06:53:00,
2013-08-21 23:58:00,58.8,55.0,29.96,SSW,206,5.0,8.0,87,0.00,,,0.00,meteohub,2013-08-22 06:58:00,